Regional Weather Roundup
Issued by NWS

Home | Current Version | Previous Version | Text Only | Print | Product List | Glossary On
Versions: 1 2 3 4 5 6 7 8 9 10 11 12 13 14 15 16 17 18 19 20 21 22 23 24 25 26 27 28 29 30 31 32 33 34 35 36 37 38 39 40 41 42 43 44 45 46 47 48 49 50
000
ASUS43 KDTX 241710
RWRMI
MICHIGAN HOURLY REGIONAL WEATHER ROUNDUP
NATIONAL WEATHER SERVICE DETROIT/PONTIAC MI
1200 PM EST SAT JAN 24 2015

NOTE: "FAIR" INDICATES FEW OR NO CLOUDS BELOW 12,000 FEET WITH NO
SIGNIFICANT WEATHER AND/OR OBSTRUCTION TO VISIBILITY.

MIZ047>049-052>055-059>063-066>070-074>076-081>083-241800-
SOUTHEAST LOWER MICHIGAN

CITY           SKY/WX    TMP DP  RH WIND       PRES   REMARKS
ADRIAN         CLOUDY    30  25  81 W10       29.64F WCI  21
ALMA           CLOUDY    35  31  85 W8        29.58F WCI  28
ANN ARBOR      CLOUDY    31  26  82 SW8       29.61F WCI  23
BAD AXE        CLOUDY    32  30  92 W10       29.55F FOG     WCI  23
CARO           CLOUDY    32  29  88 SW7       29.56F FOG     WCI  26
DETROIT CITY   CLOUDY    32  25  75 W10       29.61F HAZE    WCI  24
DETROIT        CLOUDY    30  26  85 SW12      29.62F FOG     WCI  20
FLINT          CLOUDY    34  28  79 W8        29.59F HAZE    WCI  27
GROSSE ILE     CLOUDY    30  27  86 W12       29.61F HAZE    WCI  21
HILLSDALE      CLOUDY    31  29  93 W7        29.61F FOG     WCI  24
HOWELL         CLOUDY    31  29  90 W8        29.59F FOG     WCI  24

CITY           SKY/WX    TMP DP  RH WIND       PRES   REMARKS
JACKSON        CLOUDY    31  27  85 W7        29.60F FOG     WCI  24
LAMBERTVILLE   CLOUDY    32  27  80 SW8       29.65F HAZE    WCI  25
LANSING        CLOUDY    34  29  82 W13       29.60F HAZE    WCI  25
LAPEER         CLOUDY    31  28  88 W6        29.57F FOG     WCI  25
MASON          CLOUDY    32  28  85 W7        29.60F FOG     WCI  25
MONROE         CLOUDY    30  27  86 SW12      29.61F FOG     WCI  21
MT. CLEMENS    LGT SNOW  30  26  83 SW10      29.57F FOG     WCI  21
PONTIAC        LGT SNOW N/A N/A N/A MISG      29.57F
PORT HOPE        N/A     32  27  81 W10       29.52F WCI  24
PORT HURON     CLOUDY    28  25  86 SW7       29.59F FOG     WCI  21
TRI CITIES     CLOUDY    35  30  82 W12       29.57F WCI  27
TROY           CLOUDY    32  27  81 SW8       29.61F HAZE    WCI  24
SAGINAW HB     CLOUDY    34  32  93 SW8       29.56F FOG     WCI  27
$$
MIZ043>046-050>051-056>058-064>065-071>073-077>080-241800-
SOUTHWEST LOWER MICHIGAN

CITY           SKY/WX    TMP DP  RH WIND       PRES   REMARKS
BATTLE CREEK   CLOUDY    35  29  78 W12       29.63F HAZE    WCI  27
BENTON HARBOR  PTSUNNY   37  32  82 W12       29.67F WCI  29
BIG RAPIDS     CLOUDY    36  32  85 W8        29.57F WCI  30
COLDWATER      CLOUDY    31  29  92 MISG      29.63F FOG
FREMONT        CLOUDY    37  31  78 W5        29.60F WCI  33
HOLLAND        MOSUNNY   39  31  72 W10       29.64F WCI  32
GRAND RAPIDS   PTSUNNY   36  30  79 W12       29.61F WCI  28
IONIA          CLOUDY    36  31  82 W8        29.59F WCI  30
KALAMAZOO      CLOUDY    34  30  85 W5        29.64F FOG     WCI  30
LUDINGTON      CLOUDY    38  33  82 NW8       29.60S WCI  32
MARSHALL       CLOUDY    32  29  88 W8        29.62F FOG     WCI  25
MOUNT PLEASANT CLOUDY    37  30  77 W8        29.56F WCI  30
MUSKEGON       CLOUDY    37  31  78 W9        29.63S WCI  30
SOUTH HAVEN    PTSUNNY   39  32  76 W8        29.66F WCI  33
$$
MIZ016>042-241800-
NORTHERN LOWER MICHIGAN

CITY           SKY/WX    TMP DP  RH WIND       PRES   REMARKS
ALPENA         CLOUDY    36  30  79 W8        29.50F WCI  30
BEAVER ISLAND  CLOUDY    35  32  90 CALM      29.53S
BELLAIRE       CLOUDY    35  33  92 CALM      29.54F FOG
CADILLAC       CLOUDY    34  31  90 W10       29.53F WCI  26
CHARLEVOIX     CLOUDY    34  32  93 W15       29.56S WCI  24
FRANKFORT      CLOUDY    36  33  88 NW12      29.57S WCI  28
GAYLORD        CLOUDY    32  32 100 VRB5      29.50F WCI  27
GRAYLING       LGT SNOW  33  32  96 W7        29.52F WCI  27
HARBOR SPRINGS CLOUDY    35  32  90 W5        29.51F WCI  31
HOUGHTON LAKE  CLOUDY    34  30  85 W8        29.52F WCI  27
MANISTEE       CLOUDY    36  30  80 W12       29.59F WCI  27
OSCODA         CLOUDY    35  30  83 W8        29.50F WCI  29
PELLSTON       CLOUDY    35  31  85 W15       29.51F WCI  25
ROGERS CITY    CLOUDY    35  33  93 W8        29.50F WCI  28
TRAVERSE CITY  CLOUDY    37  31  78 W6        29.54F WCI  32
$$
MIZ007>008-015-241800-
EASTERN UPPER MICHIGAN

CITY           SKY/WX    TMP DP  RH WIND       PRES   REMARKS
KINROSS        CLOUDY    34  34 100 NW15      29.47F WCI  24
MACKINAC ISLAN CLOUDY    34  33  99 W12G17    29.50S WCI  25
NEWBERRY       CLOUDY    30  27  86 NW9G16    29.52S WCI  22
S. S. MARIE    LGT SNOW  34  30  85 W9        29.47S FOG     WCI  27
MUNISING         N/A     33  26  75 N15       29.57R WCI  23
$$
MIZ004>006-011>014-085-241800-
CENTRAL UPPER MICHIGAN

CITY           SKY/WX    TMP DP  RH WIND       PRES   REMARKS
MANISTIQUE     CLOUDY    33  32  95 NW8       29.54R WCI  26
ESCANABA       MOSUNNY   39  25  56 NW10G16   29.55F WCI  32
MENOMINEE      CLOUDY    39  28  65 W6        29.58S WCI  35
SAWYER-GWINN   CLOUDY    30  27  86 N16       29.55S WCI  19
$$
MIZ001>003-009>011-084-241800-
WESTERN UPPER MICHIGAN

CITY           SKY/WX    TMP DP  RH WIND       PRES   REMARKS
IRON MOUNTAIN  CLOUDY    37  25  61 NW12      29.54F WCI  29
HOUGHTON       CLOUDY    22  17  81 N16       29.60R WCI   8
COPPER HARBOR    N/A     23  18  81 NE18G25   29.63S WCI   9
IRONWOOD       CLOUDY    34  28  80 N7        29.59R WCI  28
$$

ABBREVIATIONS USED IN REMARKS
   TC - TEMPERATURE IN CELSIUS
  WCI - WIND CHILL INDEX
   HX - HEAT INDEX
  VSB - VISIBILITY




USA.gov is the U.S. government's official web portal to all federal, state and local government web resources and services.